DELTA 1 DEB, 7130

Orbit data source: Space-Track

DELTA 1 DEB, 7130 is space debris in SSO originally from a launch on Tue, 06 Nov 1973 UTC launched from the Air Force Western Test Range (AFWTR). Debris objects in space refer to the collection of defunct objects orbiting the Earth. Examples of debris include non-operational satellites, rocket bodies, and fragments generated from explosions, collisions, or faulty payload assembly.

Loading next visibility...
Identifier
7130, 1973-086CU
Orbit
SSO
Country
Flag of USUS
Related business
Manufacturer
Unknown
Mission
Spacecraft
Bus & Motor
Unknown
Mass
Unknown
Launch date (UTC)
1973-11-06 (53 years ago)
Launch vehicle
Unknown
Launch site
Air Force Western Test Range (AFWTR)
Object type
Payload
Rocket body
Debris
Shape & HBR
Unknown shape, 0.1 m
Radar Cross Section
Medium (>0.1 m² and <1 m²)

Expand to show TLE details & history
Last TLE update: 20 hours ago

TLE from 20 hours ago
0 DELTA 1 DEB
1 07130U 73086CU  26255.37233449  .00005265  00000-0  87110-2 0  9997
2 07130 102.4020  55.2798 0049706 165.1706 226.7085 13.46964984473604
Epoch: 2026-09-12T08:56Z
TLE epoch observation values (Epoch: 2026-09-12T08:56:09.699Z)
Latitude
30.70634°
Longitude
-77.60862°
Altitude
1,112.636 km
Speed
7.286 km/s
True Right ascension
03h 11m 15s
True Declination
30° 33' 46"
Sunlit
Object was in daylight at epoch
Visualization orbit readout
Latitude
Unknown
Longitude
Unknown
Altitude
Unknown
Speed
Unknown
Apparent Right ascension
Unknown
Apparent Declination
Unknown
Sunlit
N/A
Visualization observer readout
Local Sidereal Time
21:35:44
Azimuth
Unknown
Elevation
Unknown
Doppler factor
Unknown
Orbital elements
Apogee altitude
1,117.984 km
Perigee altitude
1,043.832 km
Semi-major axis
7,459.045 km
Eccentricity
0.00497
Inclination
102.402°
RAAN
55.2798°
Arg. of periapsis
165.1706°
True anomaly
226.29567°
Mean anomaly
226.7085°
Eccentric anomaly
226.50191°
Mean motion
3.36913 °/min
Orbital period
106.85 mins
BSTAR
0.008711
Loading maneuver chart data...
Computing Atmospheric mass density...
Loading historical data...
Loading historical data...
Loading historical data...
Loading historical data...
Loading historical data...
Loading historical data...
Loading historical data...

Documentation

Showing up to 5 results
|